Погода в Нюксенице

Россия / Вологодская область     60°24′54″N   44°14′41″E
темп.,
°C
ветер,
м/с
пор.,
м/с
влажн.,
%
обл.,
%
осадки,
мм/ч
давл.,
гПа
погр.,
м
12 мая, ср
ср1200:00+10ююз23865 0.0 103048
03:00+9ююз228859 0.0 103017
06:00+12ююз247454 0.0 1030142
09:00+18ююз22515 0.0 1030566
12:00+21ю23370 0.0 10281055
15:00+23ю22300 0.0 10271286
18:00+21ю11460 0.0 102625
21:00+14юв22630 0.0 102711
13 мая, чт
чт1300:00+12ююв22780 0.0 102711
03:00+12ююв22860 0.0 102713
06:00+15ююв24751 0.0 1026143
09:00+21ююв245670 0.0 1026641
12:00+24ююз364184 0.0 10242567
15:00+19юв226267 0.0 102338
18:00+19юв236397 0.0 102150
21:00+16юв311805 0.0 1020252
14 мая, пт
пт1400:00+14юв298599 0.1 1019183
03:00+13юв31089100 0.1 1018240
06:00+15ю3990100 1.5 1018585
09:00+17юз468082 2.2 1018846
12:00+19юз375832 0.1 10181454
15:00+18юз276289 0.1 1018342
18:00+19ююз3663100 0.0 1017426
21:00+15ююз278570 0.0 1017133
15 мая, сб
сб1500:00+12юз228759 0.0 101627
03:00+11ююз119198 0.0 101711
06:00+14ю2590100 0.1 1016197
09:00+14ююв1391100 0.1 101594
12:00+22ю3557100 0.3 10141552
15:00+25ююз354857 0.4 10121944
18:00+22юв2463100 0.0 1010121
21:00+16в4798100 22.5 1009176
16 мая, вс
вс1600:00+15ююв4129642 3.4 1008398
03:00+14ююз412935 3.4 1008504
06:00+14ююз411910 0.0 1009472
09:00+18ююз597420 0.0 1008873
12:00+21ююз610663 0.8 10081467
15:00+21юз5106599 2.2 10081494
18:00+19юз5107514 0.7 1008980
21:00+15юз4118911 1.5 1008474